sat.trackr.live / text

‹ back to catalog

OMNI-L1

NORAD 52157 · 2022-033A

PAYLOAD ACTIVE UNKNOWN

§ Identity

Operator
Country
US
Launch date
2022-04-01
Launch site
AFETR
Launch vehicle
Mass (kg)
RCS (m²)

External: N2YO · Heavens-Above · Gunter

§ Orbital elements

Epoch: 2026-09-20T22:16:48.530208Z

Period
97.10 min
Inclination
97.8331°
Eccentricity
0.0004620
Mean motion
14.83027232 rev/d
Perigee alt
616.6 km
Apogee alt
623.0 km
Semi-major
6,997.9 km
B*
1.2907e-4
RAAN
341.2308°
Arg perigee
347.4324°
Mean anomaly
12.6774°
Rev number
24,164

§ Raw data

OMNI-L11 52157U 22033A   26263.92833947  .00000997  00000+0  12907-3 0  99902 52157  97.8331 341.2308 0004620 347.4324  12.6774 14.83027232241649

JSON: /api/v1/satellites/52157 · /tle

For live sub-satellite position, see the globe view (requires WebGL).

§ Visibility from observer

Set your observer location to see the next 7 days of passes ≥ 10°. The values pass through the URL so the page stays shareable.

No JS? Fill the form by hand. The geolocation button needs JavaScript.

§ Radio — SatNOGS DB

ModeDescriptionDownlinkUplink
FM UHF Unknown 401.050 MHz

1 transmitter · refreshed weekly from db.satnogs.org